Hourly Data Report for October 09, 2012

All times are specified in Local Standard Time (LST). Add 1 hour to adjust for Daylight Saving Time where and when it is observed.

KITCHENER/WATERLOO
ONTARIO

43°27'39.000" N
80°22'43.000" W
321.60 m
6144239
71368
YKF

Download Data

Hourly Data (October 2012)
Hourly Data Report for October 9, 2012
Temp Definition
°C
Dew Point Temp Definition
°C
Rel Hum Definition
%
Wind Dir Definition
10's deg

Wind Spd Definition
km/h
Visibility Definition
km
Stn Press Definition
kPa
Hmdx Definition


Wind Chill Definition


Weather Definition


TIME
00:00 Legend Double Dagger 1.8 -0.2 86 16 8 16.1 98.26     LegendNANA
01:00 Legend Double Dagger 1.6 -0.5 86 15 8 16.1 98.26     LegendNANA
02:00 Legend Double Dagger 1.4 0.1 91 11 5 16.1 98.26     LegendNANA
03:00 Legend Double Dagger 2.9 1.5 91 11 5 16.1 98.18     LegendNANA
04:00 Legend Double Dagger 3.1 2.2 94   0 16.1 98.20     LegendNANA
05:00 Legend Double Dagger 4.3 3.0 91 13 8 16.1 98.17     LegendNANA
06:00 Legend Double Dagger 5.0 3.4 90 15 5 16.1 98.20     LegendNANA
07:00 Legend Double Dagger 6.4 4.4 87 17 9 16.1 98.21     LegendNANA
08:00 Legend Double Dagger 8.0 5.2 82 17 15 16.1 98.20     LegendNANA
09:00 Legend Double Dagger 8.7 5.4 80 17 21 16.1 98.19     LegendNANA
10:00 Legend Double Dagger 10.3 5.5 72 18 24 16.1 98.13     LegendNANA
11:00 Legend Double Dagger 11.0 5.4 68 19 21 16.1 98.11     LegendNANA
12:00 Legend Double Dagger 12.4 5.4 62 19 28 16.1 98.00     LegendNANA
13:00 Legend Double Dagger 12.5 4.7 59 18 21 16.1 97.88     LegendNANA
14:00 Legend Double Dagger 13.0 4.0 54 18 22 16.1 97.86     LegendNANA
15:00 Legend Double Dagger 12.4 3.6 55 20 28 16.1 97.84     LegendNANA
16:00 Legend Double Dagger 11.5 2.9 55 19 24 16.1 97.78     LegendNANA
17:00 Legend Double Dagger 10.8 3.1 59 18 21 16.1 97.74     LegendNANA
18:00 Legend Double Dagger 9.8 3.4 64 17 18 16.1 97.68     LegendNANA
19:00 Legend Double Dagger 8.6 3.1 68 16 13 16.1 97.67     LegendNANA
20:00 Legend Double Dagger 8.1 3.0 70 18 11 16.1 97.65     LegendNANA
21:00 Legend Double Dagger 6.6 3.2 79 14 11 16.1 97.59     LegendNANA
22:00 Legend Double Dagger 6.7 3.2 78 16 8 16.1 97.52     LegendNANA
23:00 Legend Double Dagger 5.1 2.7 84 15 8 16.1 97.45     LegendNANA

Notes on Data Quality.

Legend

  • E = Estimated
  • M = Missing
  • NA = Not Available
  • ‡ = Partner data that is not subject to review by the National Climate Archives
Date modified: